Time,TemperatureF,DewpointF,PressureIn,WindDirection,WindDirectionDegrees,WindSpeedMPH,WindSpeedGustMPH,Humidity,HourlyPrecipIn,Conditions,Clouds,dailyrainin,SoftwareType,DateUTC
2013-10-29 00:00:00,59.5,22.6,29.86,SSE,165,4.0,4.0,24,0.00,,,0.00,Wunderground v.1.15,2013-10-29 06:00:00,
2013-10-29 00:10:00,59.5,22.6,29.86,SSE,167,3.0,3.0,24,0.00,,,0.00,Wunderground v.1.15,2013-10-29 06:10:00,
2013-10-29 00:20:00,59.0,23.2,29.86,SSE,167,1.0,1.0,25,0.00,,,0.00,Wunderground v.1.15,2013-10-29 06:20:00,
2013-10-29 00:30:00,58.3,23.5,29.87,SSE,167,0.0,0.0,26,0.00,,,0.00,Wunderground v.1.15,2013-10-29 06:30:00,
2013-10-29 00:40:00,57.5,23.7,29.87,SSE,167,0.0,0.0,27,0.00,,,0.00,Wunderground v.1.15,2013-10-29 06:40:00,
2013-10-29 00:50:00,56.5,23.7,29.87,SSE,167,0.0,0.0,28,0.00,,,0.00,Wunderground v.1.15,2013-10-29 06:50:00,
2013-10-29 01:00:00,55.9,24.1,29.87,SSE,167,0.0,0.0,29,0.00,,,0.00,Wunderground v.1.15,2013-10-29 07:00:00,
2013-10-29 01:10:00,55.7,23.9,29.87,SSE,167,0.0,12.0,29,0.00,,,0.00,Wunderground v.1.15,2013-10-29 07:10:00,
2013-10-29 01:20:00,56.0,23.3,29.87,SSE,167,1.0,12.0,28,0.00,,,0.00,Wunderground v.1.15,2013-10-29 07:20:00,
2013-10-29 01:30:00,57.0,23.3,29.87,ESE,122,2.0,12.0,27,0.00,,,0.00,Wunderground v.1.15,2013-10-29 07:30:00,
2013-10-29 01:40:00,57.0,24.2,29.87,ESE,121,2.0,12.0,28,0.00,,,0.00,Wunderground v.1.15,2013-10-29 07:40:00,
2013-10-29 01:50:00,56.9,24.1,29.87,ESE,109,3.0,12.0,28,0.00,,,0.00,Wunderground v.1.15,2013-10-29 07:50:00,
2013-10-29 02:00:00,56.9,24.1,29.87,ESE,113,3.0,3.0,28,0.00,,,0.00,Wunderground v.1.15,2013-10-29 08:00:00,
2013-10-29 02:10:00,56.5,24.6,29.87,ESE,113,1.0,12.0,29,0.00,,,0.00,Wunderground v.1.15,2013-10-29 08:10:00,
2013-10-29 02:20:00,56.2,24.3,29.87,ESE,111,2.0,2.0,29,0.00,,,0.00,Wunderground v.1.15,2013-10-29 08:20:00,
2013-10-29 02:30:00,56.1,25.1,29.87,ESE,110,2.0,12.0,30,0.00,,,0.00,Wunderground v.1.15,2013-10-29 08:30:00,
2013-10-29 02:40:00,56.0,25.0,29.87,ESE,111,2.0,2.0,30,0.00,,,0.00,Wunderground v.1.15,2013-10-29 08:40:00,
2013-10-29 02:50:00,55.8,24.8,29.87,ESE,109,1.0,12.0,30,0.00,,,0.00,Wunderground v.1.15,2013-10-29 08:50:00,
2013-10-29 03:00:00,55.9,24.9,29.86,East,101,2.0,12.0,30,0.00,,,0.00,Wunderground v.1.15,2013-10-29 09:00:00,
2013-10-29 03:10:00,55.7,24.7,29.86,ESE,106,4.0,4.0,30,0.00,,,0.00,Wunderground v.1.15,2013-10-29 09:10:00,
2013-10-29 03:20:00,55.5,25.3,29.86,ESE,111,3.0,12.0,31,0.00,,,0.00,Wunderground v.1.15,2013-10-29 09:20:00,
2013-10-29 03:30:00,55.2,25.8,29.86,ESE,110,2.0,12.0,32,0.00,,,0.00,Wunderground v.1.15,2013-10-29 09:30:00,
2013-10-29 03:40:00,55.1,25.7,29.86,ESE,114,3.0,12.0,32,0.00,,,0.00,Wunderground v.1.15,2013-10-29 09:40:00,
2013-10-29 03:50:00,54.8,25.5,29.86,ESE,114,1.0,1.0,32,0.00,,,0.00,Wunderground v.1.15,2013-10-29 09:50:00,
2013-10-29 04:00:00,54.4,25.9,29.87,ESE,114,1.0,1.0,33,0.00,,,0.00,Wunderground v.1.15,2013-10-29 10:00:00,
2013-10-29 04:10:00,54.2,25.7,29.86,ESE,114,1.0,12.0,33,0.00,,,0.00,Wunderground v.1.15,2013-10-29 10:10:00,
2013-10-29 04:20:00,54.6,25.3,29.86,ESE,118,1.0,12.0,32,0.00,,,0.00,Wunderground v.1.15,2013-10-29 10:20:00,
2013-10-29 04:30:00,53.8,25.3,29.87,ESE,118,2.0,12.0,33,0.00,,,0.00,Wunderground v.1.15,2013-10-29 10:30:00,
2013-10-29 04:40:00,53.2,25.5,29.86,ESE,117,1.0,1.0,34,0.00,,,0.00,Wunderground v.1.15,2013-10-29 10:40:00,
2013-10-29 04:50:00,53.0,26.0,29.87,ESE,118,0.0,12.0,35,0.00,,,0.00,Wunderground v.1.15,2013-10-29 10:50:00,
2013-10-29 05:00:00,52.7,25.8,29.87,ESE,118,0.0,12.0,35,0.00,,,0.00,Wunderground v.1.15,2013-10-29 11:00:00,
2013-10-29 05:10:00,52.1,25.9,29.87,ESE,118,0.0,12.0,36,0.00,,,0.00,Wunderground v.1.15,2013-10-29 11:10:00,
2013-10-29 05:20:00,52.1,25.9,29.87,ESE,118,1.0,1.0,36,0.00,,,0.00,Wunderground v.1.15,2013-10-29 11:20:00,
2013-10-29 05:30:00,51.9,25.8,29.87,ESE,118,0.0,12.0,36,0.00,,,0.00,Wunderground v.1.15,2013-10-29 11:30:00,
2013-10-29 05:40:00,51.6,25.5,29.88,ESE,118,0.0,12.0,36,0.00,,,0.00,Wunderground v.1.15,2013-10-29 11:40:00,
2013-10-29 05:50:00,51.6,25.5,29.88,ESE,118,2.0,12.0,36,0.00,,,0.00,Wunderground v.1.15,2013-10-29 11:50:00,
2013-10-29 06:00:00,51.5,25.4,29.88,ESE,118,3.0,12.0,36,0.00,,,0.00,Wunderground v.1.15,2013-10-29 12:00:00,
2013-10-29 06:10:00,51.8,25.7,29.88,ESE,115,4.0,4.0,36,0.00,,,0.00,Wunderground v.1.15,2013-10-29 12:10:00,
2013-10-29 06:20:00,52.0,25.8,29.89,ESE,113,2.0,12.0,36,0.00,,,0.00,Wunderground v.1.15,2013-10-29 12:20:00,
2013-10-29 06:30:00,52.0,25.8,29.89,ESE,113,3.0,12.0,36,0.00,,,0.00,Wunderground v.1.15,2013-10-29 12:30:00,
2013-10-29 06:40:00,51.9,25.8,29.89,ESE,111,4.0,12.0,36,0.00,,,0.00,Wunderground v.1.15,2013-10-29 12:40:00,
2013-10-29 06:50:00,52.5,25.6,29.89,ESE,115,4.0,4.0,35,0.00,,,0.00,Wunderground v.1.15,2013-10-29 12:50:00,
2013-10-29 07:00:00,52.8,25.2,29.89,SE,128,3.0,3.0,34,0.00,,,0.00,Wunderground v.1.15,2013-10-29 13:00:00,
2013-10-29 07:10:00,53.0,25.3,29.89,SE,124,2.0,12.0,34,0.00,,,0.00,Wunderground v.1.15,2013-10-29 13:10:00,
2013-10-29 07:20:00,52.7,25.8,29.90,SE,125,1.0,1.0,35,0.00,,,0.00,Wunderground v.1.15,2013-10-29 13:20:00,
2013-10-29 07:30:00,52.0,25.8,29.90,SE,125,0.0,12.0,36,0.00,,,0.00,Wunderground v.1.15,2013-10-29 13:30:00,
2013-10-29 07:40:00,51.7,25.6,29.90,SE,125,2.0,2.0,36,0.00,,,0.00,Wunderground v.1.15,2013-10-29 13:40:00,
2013-10-29 07:50:00,51.1,26.3,29.91,SE,125,1.0,1.0,38,0.00,,,0.00,Wunderground v.1.15,2013-10-29 13:50:00,
2013-10-29 08:00:00,51.2,26.4,29.91,SE,125,1.0,12.0,38,0.00,,,0.00,Wunderground v.1.15,2013-10-29 14:00:00,
2013-10-29 08:10:00,51.4,26.6,29.91,SE,125,1.0,12.0,38,0.00,,,0.00,Wunderground v.1.15,2013-10-29 14:10:00,
2013-10-29 08:20:00,51.6,26.8,29.92,SE,125,1.0,12.0,38,0.00,,,0.00,Wunderground v.1.15,2013-10-29 14:20:00,
2013-10-29 08:30:00,51.9,26.4,29.92,ESE,123,2.0,2.0,37,0.00,,,0.00,Wunderground v.1.15,2013-10-29 14:30:00,
2013-10-29 08:40:00,51.7,26.9,29.92,ESE,123,2.0,12.0,38,0.00,,,0.00,Wunderground v.1.15,2013-10-29 14:40:00,
2013-10-29 08:50:00,51.9,27.1,29.93,ESE,123,2.0,2.0,38,0.00,,,0.00,Wunderground v.1.15,2013-10-29 14:50:00,
2013-10-29 09:00:00,52.4,26.9,29.93,ESE,123,0.0,12.0,37,0.00,,,0.00,Wunderground v.1.15,2013-10-29 15:00:00,
2013-10-29 09:10:00,53.2,27.6,29.93,ESE,123,0.0,12.0,37,0.00,,,0.00,Wunderground v.1.15,2013-10-29 15:10:00,
2013-10-29 09:20:00,55.0,27.8,29.93,ESE,123,0.0,12.0,35,0.00,,,0.00,Wunderground v.1.15,2013-10-29 15:20:00,
2013-10-29 09:30:00,56.8,28.0,29.93,ESE,123,0.0,12.0,33,0.00,,,0.00,Wunderground v.1.15,2013-10-29 15:30:00,
2013-10-29 09:40:00,58.0,28.3,29.93,ESE,123,1.0,12.0,32,0.00,,,0.00,Wunderground v.1.15,2013-10-29 15:40:00,
2013-10-29 09:50:00,58.8,28.2,29.93,ESE,123,2.0,12.0,31,0.00,,,0.00,Wunderground v.1.15,2013-10-29 15:50:00,
2013-10-29 10:00:00,59.3,27.8,29.93,ESE,119,4.0,4.0,30,0.00,,,0.00,Wunderground v.1.15,2013-10-29 16:00:00,
2013-10-29 10:10:00,59.8,27.4,29.93,SE,127,4.0,4.0,29,0.00,,,0.00,Wunderground v.1.15,2013-10-29 16:10:00,
2013-10-29 10:20:00,59.9,27.5,29.93,SSE,166,5.0,12.0,29,0.00,,,0.00,Wunderground v.1.15,2013-10-29 16:20:00,
2013-10-29 10:30:00,60.7,27.4,29.93,SSE,163,3.0,12.0,28,0.00,,,0.00,Wunderground v.1.15,2013-10-29 16:30:00,
2013-10-29 10:40:00,61.3,27.9,29.92,SSE,167,4.0,4.0,28,0.00,,,0.00,Wunderground v.1.15,2013-10-29 16:40:00,
2013-10-29 10:50:00,61.6,27.3,29.92,SSE,167,3.0,3.0,27,0.00,,,0.00,Wunderground v.1.15,2013-10-29 16:50:00,
2013-10-29 11:00:00,61.9,28.4,29.92,SE,146,2.0,2.0,28,0.00,,,0.00,Wunderground v.1.15,2013-10-29 17:00:00,
2013-10-29 11:10:00,62.5,28.0,29.91,South,178,3.0,12.0,27,0.00,,,0.00,Wunderground v.1.15,2013-10-29 17:10:00,
2013-10-29 11:20:00,62.9,28.4,29.91,South,181,3.0,12.0,27,0.00,,,0.00,Wunderground v.1.15,2013-10-29 17:20:00,
2013-10-29 11:30:00,63.3,27.8,29.90,South,177,4.0,4.0,26,0.00,,,0.00,Wunderground v.1.15,2013-10-29 17:30:00,
2013-10-29 11:40:00,63.7,26.2,29.90,SSE,155,4.0,12.0,24,0.00,,,0.00,Wunderground v.1.15,2013-10-29 17:40:00,
2013-10-29 11:50:00,64.1,26.5,29.89,SE,140,5.0,5.0,24,0.00,,,0.00,Wunderground v.1.15,2013-10-29 17:50:00,
2013-10-29 12:00:00,64.8,25.0,29.89,East,100,6.0,12.0,22,0.00,,,0.00,Wunderground v.1.15,2013-10-29 18:00:00,
2013-10-29 12:10:00,64.7,27.0,29.88,South,184,7.0,12.0,24,0.00,,,0.00,Wunderground v.1.15,2013-10-29 18:10:00,
2013-10-29 12:20:00,65.2,26.4,29.87,SSE,161,7.0,12.0,23,0.00,,,0.00,Wunderground v.1.15,2013-10-29 18:20:00,
2013-10-29 12:30:00,65.2,26.4,29.86,South,178,9.0,16.0,23,0.00,,,0.00,Wunderground v.1.15,2013-10-29 18:30:00,
2013-10-29 12:40:00,65.0,25.2,29.85,South,187,10.0,10.0,22,0.00,,,0.00,Wunderground v.1.15,2013-10-29 18:40:00,
2013-10-29 12:50:00,65.3,25.4,29.84,SSW,198,11.0,11.0,22,0.00,,,0.00,Wunderground v.1.15,2013-10-29 18:50:00,
2013-10-29 13:00:00,65.9,25.9,29.83,SSW,198,9.0,9.0,22,0.00,,,0.00,Wunderground v.1.15,2013-10-29 19:00:00,
2013-10-29 13:10:00,66.7,26.6,29.83,SSE,163,7.0,12.0,22,0.00,,,0.00,Wunderground v.1.15,2013-10-29 19:10:00,
2013-10-29 13:20:00,66.4,27.4,29.82,SSW,202,9.0,12.0,23,0.00,,,0.00,Wunderground v.1.15,2013-10-29 19:20:00,
2013-10-29 13:30:00,66.5,26.4,29.81,SE,132,10.0,10.0,22,0.00,,,0.00,Wunderground v.1.15,2013-10-29 19:30:00,
2013-10-29 13:40:00,66.8,25.6,29.80,SSE,165,9.0,9.0,21,0.00,,,0.00,Wunderground v.1.15,2013-10-29 19:40:00,
2013-10-29 13:50:00,66.8,25.6,29.80,SE,144,9.0,9.0,21,0.00,,,0.00,Wunderground v.1.15,2013-10-29 19:50:00,
2013-10-29 14:00:00,66.9,25.7,29.79,ESE,121,10.0,10.0,21,0.00,,,0.00,Wunderground v.1.15,2013-10-29 20:00:00,
2013-10-29 14:10:00,66.7,25.5,29.78,SSE,162,8.0,8.0,21,0.00,,,0.00,Wunderground v.1.15,2013-10-29 20:10:00,
2013-10-29 14:20:00,66.9,26.8,29.77,South,176,6.0,12.0,22,0.00,,,0.00,Wunderground v.1.15,2013-10-29 20:20:00,
2013-10-29 14:30:00,67.8,26.4,29.76,SSW,208,5.0,12.0,21,0.00,,,0.00,Wunderground v.1.15,2013-10-29 20:30:00,
2013-10-29 14:40:00,68.1,25.5,29.76,SSW,213,8.0,12.0,20,0.00,,,0.00,Wunderground v.1.15,2013-10-29 20:40:00,
2013-10-29 14:50:00,68.1,25.5,29.75,South,174,7.0,12.0,20,0.00,,,0.00,Wunderground v.1.15,2013-10-29 20:50:00,
2013-10-29 15:00:00,68.4,25.7,29.75,SE,138,6.0,12.0,20,0.00,,,0.00,Wunderground v.1.15,2013-10-29 21:00:00,
2013-10-29 15:10:00,68.8,26.1,29.74,South,173,8.0,8.0,20,0.00,,,0.00,Wunderground v.1.15,2013-10-29 21:10:00,
2013-10-29 15:20:00,68.8,26.1,29.74,SSE,157,9.0,9.0,20,0.00,,,0.00,Wunderground v.1.15,2013-10-29 21:20:00,
2013-10-29 15:30:00,68.7,24.7,29.73,South,182,10.0,12.0,19,0.00,,,0.00,Wunderground v.1.15,2013-10-29 21:30:00,
2013-10-29 15:40:00,68.9,24.9,29.73,South,175,10.0,15.0,19,0.00,,,0.00,Wunderground v.1.15,2013-10-29 21:40:00,
2013-10-29 15:50:00,68.6,25.9,29.73,SE,130,11.0,11.0,20,0.00,,,0.00,Wunderground v.1.15,2013-10-29 21:50:00,
2013-10-29 16:00:00,68.5,25.8,29.73,SSE,168,12.0,12.0,20,0.00,,,0.00,Wunderground v.1.15,2013-10-29 22:00:00,
2013-10-29 16:10:00,68.7,27.2,29.73,SSE,159,11.0,19.0,21,0.00,,,0.00,Wunderground v.1.15,2013-10-29 22:10:00,
2013-10-29 16:20:00,68.2,27.9,29.73,SE,144,15.0,15.0,22,0.00,,,0.00,Wunderground v.1.15,2013-10-29 22:20:00,
2013-10-29 16:30:00,68.0,28.8,29.72,SE,136,12.0,18.0,23,0.00,,,0.00,Wunderground v.1.15,2013-10-29 22:30:00,
2013-10-29 16:40:00,67.8,28.6,29.72,SSE,149,14.0,14.0,23,0.00,,,0.00,Wunderground v.1.15,2013-10-29 22:40:00,
2013-10-29 16:50:00,67.9,27.6,29.72,South,175,16.0,16.0,22,0.00,,,0.00,Wunderground v.1.15,2013-10-29 22:50:00,
2013-10-29 17:00:00,68.1,27.8,29.72,South,177,16.0,18.0,22,0.00,,,0.00,Wunderground v.1.15,2013-10-29 23:00:00,
2013-10-29 17:10:00,68.1,26.7,29.71,SSE,163,15.0,15.0,21,0.00,,,0.00,Wunderground v.1.15,2013-10-29 23:10:00,
2013-10-29 17:20:00,68.2,26.7,29.71,SSE,150,15.0,15.0,21,0.00,,,0.00,Wunderground v.1.15,2013-10-29 23:20:00,
2013-10-29 17:30:00,68.2,26.7,29.71,SSE,165,15.0,15.0,21,0.00,,,0.00,Wunderground v.1.15,2013-10-29 23:30:00,
2013-10-29 17:40:00,68.0,26.6,29.72,SE,142,15.0,15.0,21,0.00,,,0.00,Wunderground v.1.15,2013-10-29 23:40:00,
2013-10-29 17:50:00,67.8,27.5,29.71,South,184,13.0,16.0,22,0.00,,,0.00,Wunderground v.1.15,2013-10-29 23:50:00,
2013-10-29 18:00:00,67.3,27.1,29.72,South,178,13.0,18.0,22,0.00,,,0.00,Wunderground v.1.15,2013-10-30 00:00:00,
2013-10-29 18:10:00,66.7,26.6,29.72,South,170,13.0,15.0,22,0.00,,,0.00,Wunderground v.1.15,2013-10-30 00:10:00,
2013-10-29 18:20:00,66.3,27.4,29.73,South,170,13.0,13.0,23,0.00,,,0.00,Wunderground v.1.15,2013-10-30 00:20:00,
2013-10-29 18:30:00,66.0,27.1,29.73,South,171,12.0,14.0,23,0.00,,,0.00,Wunderground v.1.15,2013-10-30 00:30:00,
2013-10-29 18:40:00,65.6,26.8,29.73,SSE,164,12.0,12.0,23,0.00,,,0.00,Wunderground v.1.15,2013-10-30 00:40:00,
2013-10-29 18:50:00,65.0,27.3,29.74,SSE,166,11.0,12.0,24,0.00,,,0.00,Wunderground v.1.15,2013-10-30 00:50:00,
2013-10-29 19:00:00,64.5,27.9,29.74,South,176,12.0,12.0,25,0.00,,,0.00,Wunderground v.1.15,2013-10-30 01:00:00,
2013-10-29 19:10:00,64.1,27.5,29.75,SSE,148,12.0,12.0,25,0.00,,,0.00,Wunderground v.1.15,2013-10-30 01:10:00,
2013-10-29 19:20:00,63.9,28.3,29.75,SSW,198,13.0,13.0,26,0.00,,,0.00,Wunderground v.1.15,2013-10-30 01:20:00,
2013-10-29 19:30:00,63.3,27.8,29.75,SSE,165,12.0,12.0,26,0.00,,,0.00,Wunderground v.1.15,2013-10-30 01:30:00,
2013-10-29 19:40:00,62.9,27.5,29.76,South,175,11.0,16.0,26,0.00,,,0.00,Wunderground v.1.15,2013-10-30 01:40:00,
2013-10-29 19:50:00,62.4,27.9,29.77,SSE,154,10.0,10.0,27,0.00,,,0.00,Wunderground v.1.15,2013-10-30 01:50:00,
2013-10-29 20:00:00,62.0,27.6,29.77,SE,130,10.0,10.0,27,0.00,,,0.00,Wunderground v.1.15,2013-10-30 02:00:00,
2013-10-29 20:10:00,61.7,27.3,29.77,South,182,10.0,14.0,27,0.00,,,0.00,Wunderground v.1.15,2013-10-30 02:10:00,
2013-10-29 20:20:00,61.3,27.0,29.78,South,180,10.0,12.0,27,0.00,,,0.00,Wunderground v.1.15,2013-10-30 02:20:00,
2013-10-29 20:30:00,60.9,27.5,29.78,SSE,159,8.0,8.0,28,0.00,,,0.00,Wunderground v.1.15,2013-10-30 02:30:00,
2013-10-29 20:40:00,60.6,27.3,29.78,South,173,8.0,8.0,28,0.00,,,0.00,Wunderground v.1.15,2013-10-30 02:40:00,
2013-10-29 20:50:00,60.4,27.1,29.79,SSE,163,8.0,8.0,28,0.00,,,0.00,Wunderground v.1.15,2013-10-30 02:50:00,
2013-10-29 21:00:00,60.2,26.9,29.79,South,169,8.0,12.0,28,0.00,,,0.00,Wunderground v.1.15,2013-10-30 03:00:00,
2013-10-29 21:10:00,59.8,27.4,29.79,South,175,7.0,7.0,29,0.00,,,0.00,Wunderground v.1.15,2013-10-30 03:10:00,
2013-10-29 21:20:00,59.4,27.1,29.79,SSE,149,6.0,12.0,29,0.00,,,0.00,Wunderground v.1.15,2013-10-30 03:20:00,
2013-10-29 21:30:00,59.1,27.7,29.80,SSE,149,6.0,6.0,30,0.00,,,0.00,Wunderground v.1.15,2013-10-30 03:30:00,
2013-10-29 21:40:00,59.0,27.6,29.80,SSE,153,6.0,6.0,30,0.00,,,0.00,Wunderground v.1.15,2013-10-30 03:40:00,
2013-10-29 21:50:00,58.9,27.5,29.80,South,182,5.0,12.0,30,0.00,,,0.00,Wunderground v.1.15,2013-10-30 03:50:00,
2013-10-29 22:00:00,58.8,27.4,29.79,South,169,4.0,4.0,30,0.00,,,0.00,Wunderground v.1.15,2013-10-30 04:00:00,
2013-10-29 22:10:00,58.9,26.7,29.79,SSE,159,6.0,12.0,29,0.00,,,0.00,Wunderground v.1.15,2013-10-30 04:10:00,
2013-10-29 22:20:00,58.7,26.5,29.79,South,179,6.0,6.0,29,0.00,,,0.00,Wunderground v.1.15,2013-10-30 04:20:00,
2013-10-29 22:30:00,58.4,27.1,29.80,SE,141,5.0,12.0,30,0.00,,,0.00,Wunderground v.1.15,2013-10-30 04:30:00,
2013-10-29 22:40:00,58.1,26.8,29.80,South,169,5.0,12.0,30,0.00,,,0.00,Wunderground v.1.15,2013-10-30 04:40:00,
2013-10-29 22:50:00,57.8,26.5,29.80,SSE,161,5.0,12.0,30,0.00,,,0.00,Wunderground v.1.15,2013-10-30 04:50:00,
2013-10-29 23:00:00,57.6,27.2,29.80,SSE,150,5.0,12.0,31,0.00,,,0.00,Wunderground v.1.15,2013-10-30 05:00:00,
2013-10-29 23:10:00,57.5,27.1,29.80,SE,146,5.0,12.0,31,0.00,,,0.00,Wunderground v.1.15,2013-10-30 05:10:00,
2013-10-29 23:20:00,57.2,26.8,29.80,South,179,6.0,12.0,31,0.00,,,0.00,Wunderground v.1.15,2013-10-30 05:20:00,
2013-10-29 23:30:00,56.9,27.3,29.80,South,178,4.0,12.0,32,0.00,,,0.00,Wunderground v.1.15,2013-10-30 05:30:00,
2013-10-29 23:40:00,56.5,27.0,29.80,South,175,5.0,5.0,32,0.00,,,0.00,Wunderground v.1.15,2013-10-30 05:40:00,
2013-10-29 23:50:00,56.3,26.8,29.80,South,183,4.0,4.0,32,0.00,,,0.00,Wunderground v.1.15,2013-10-30 05:50:00,